Time,TemperatureF,DewpointF,PressureIn,WindDirection,WindDirectionDegrees,WindSpeedMPH,WindSpeedGustMPH,Humidity,HourlyPrecipIn,Conditions,Clouds,dailyrainin,SolarRadiationWatts/m^2,SoftwareType,DateUTC
2013-03-20 00:22:00,14.0,-3.0,-100.00,North,-999,4.0,7.0,45,0.00,,,0.00,0.000000,,2013-03-20 06:22:00,
2013-03-20 00:32:00,14.0,-3.0,-100.00,North,-999,4.0,7.0,45,0.00,,,0.00,0.000000,,2013-03-20 06:32:00,
2013-03-20 00:42:00,14.0,-3.0,-100.00,North,-999,4.0,7.0,45,0.00,,,0.00,0.000000,,2013-03-20 06:42:00,
2013-03-20 00:52:00,14.0,-3.0,-100.00,North,-999,4.0,7.0,45,0.00,,,0.00,0.000000,,2013-03-20 06:52:00,
2013-03-20 01:22:00,15.0,-1.0,-100.00,North,-999,4.0,10.0,48,0.00,,,0.00,0.000000,,2013-03-20 07:22:00,
2013-03-20 01:32:00,15.0,-1.0,-100.00,North,-999,4.0,10.0,48,0.00,,,0.00,0.000000,,2013-03-20 07:32:00,
2013-03-20 01:42:00,15.0,-1.0,-100.00,North,-999,4.0,10.0,48,0.00,,,0.00,0.000000,,2013-03-20 07:42:00,
2013-03-20 01:52:00,15.0,-1.0,-100.00,North,-999,4.0,10.0,48,0.00,,,0.00,0.000000,,2013-03-20 07:52:00,
2013-03-20 02:22:00,16.0,-2.0,-100.00,North,-999,5.0,7.0,44,0.00,,,0.00,0.000000,,2013-03-20 08:22:00,
2013-03-20 02:32:00,16.0,-2.0,-100.00,North,-999,5.0,7.0,44,0.00,,,0.00,0.000000,,2013-03-20 08:32:00,
2013-03-20 02:42:00,16.0,-2.0,-100.00,North,-999,5.0,7.0,44,0.00,,,0.00,0.000000,,2013-03-20 08:42:00,
2013-03-20 02:51:00,16.0,-2.0,-100.00,North,-999,5.0,7.0,44,0.00,,,0.00,0.000000,,2013-03-20 08:51:00,
2013-03-20 03:22:00,16.0,1.0,-100.00,North,-999,6.0,9.0,50,0.00,,,0.00,0.000000,,2013-03-20 09:22:00,
2013-03-20 03:32:00,16.0,1.0,-100.00,North,-999,6.0,9.0,50,0.00,,,0.00,0.000000,,2013-03-20 09:32:00,
2013-03-20 03:43:00,16.0,1.0,-100.00,North,-999,6.0,9.0,50,0.00,,,0.00,0.000000,,2013-03-20 09:43:00,
2013-03-20 03:52:00,16.0,1.0,-100.00,North,-999,6.0,9.0,50,0.00,,,0.00,0.000000,,2013-03-20 09:52:00,
2013-03-20 04:22:00,15.0,3.0,-100.00,North,-999,4.0,9.0,59,0.00,,,0.00,0.000000,,2013-03-20 10:22:00,
2013-03-20 04:32:00,15.0,3.0,-100.00,North,-999,4.0,9.0,59,0.00,,,0.00,0.000000,,2013-03-20 10:32:00,
2013-03-20 04:42:00,15.0,3.0,-100.00,North,-999,4.0,9.0,59,0.00,,,0.00,0.000000,,2013-03-20 10:42:00,
2013-03-20 04:52:00,15.0,3.0,-100.00,North,-999,4.0,9.0,59,0.00,,,0.00,0.000000,,2013-03-20 10:52:00,
2013-03-20 05:22:00,17.0,3.0,-100.00,North,-999,2.0,5.0,53,0.00,,,0.00,0.000000,,2013-03-20 11:22:00,
2013-03-20 05:32:00,17.0,3.0,-100.00,North,-999,2.0,5.0,53,0.00,,,0.00,0.000000,,2013-03-20 11:32:00,
2013-03-20 05:42:00,17.0,3.0,-100.00,North,-999,2.0,5.0,53,0.00,,,0.00,0.000000,,2013-03-20 11:42:00,
2013-03-20 05:52:00,17.0,3.0,-100.00,North,-999,2.0,5.0,53,0.00,,,0.00,0.000000,,2013-03-20 11:52:00,
2013-03-20 06:22:00,17.0,4.0,-100.00,North,-999,5.0,6.0,55,0.00,,,0.00,0.000000,,2013-03-20 12:22:00,
2013-03-20 06:32:00,17.0,4.0,-100.00,North,-999,5.0,6.0,55,0.00,,,0.00,0.000000,,2013-03-20 12:32:00,
2013-03-20 06:42:00,17.0,4.0,-100.00,North,-999,5.0,6.0,55,0.00,,,0.00,0.000000,,2013-03-20 12:42:00,
2013-03-20 06:52:00,17.0,4.0,-100.00,North,-999,5.0,6.0,55,0.00,,,0.00,0.000000,,2013-03-20 12:52:00,
2013-03-20 07:22:00,18.0,2.0,-100.00,North,-999,3.0,6.0,49,0.00,,,0.00,0.000000,,2013-03-20 13:22:00,
2013-03-20 07:32:00,18.0,2.0,-100.00,North,-999,3.0,6.0,49,0.00,,,0.00,0.000000,,2013-03-20 13:32:00,
2013-03-20 07:42:00,18.0,2.0,-100.00,North,-999,3.0,6.0,49,0.00,,,0.00,0.000000,,2013-03-20 13:42:00,
2013-03-20 07:52:00,18.0,2.0,-100.00,North,-999,3.0,6.0,49,0.00,,,0.00,0.000000,,2013-03-20 13:52:00,
2013-03-20 08:22:00,18.0,7.0,-100.00,North,-999,3.0,5.0,61,0.00,,,0.00,6.000000,,2013-03-20 14:22:00,
2013-03-20 08:33:00,18.0,7.0,-100.00,North,-999,3.0,5.0,61,0.00,,,0.00,6.000000,,2013-03-20 14:33:00,
2013-03-20 08:42:00,18.0,7.0,-100.00,North,-999,3.0,5.0,61,0.00,,,0.00,6.000000,,2013-03-20 14:42:00,
2013-03-20 08:52:00,18.0,7.0,-100.00,North,-999,3.0,5.0,61,0.00,,,0.00,6.000000,,2013-03-20 14:52:00,
2013-03-20 09:22:00,18.0,12.0,-100.00,North,-999,3.0,4.0,76,0.00,,,0.00,51.000000,,2013-03-20 15:22:00,
2013-03-20 09:33:00,18.0,12.0,-100.00,North,-999,3.0,4.0,76,0.00,,,0.00,51.000000,,2013-03-20 15:33:00,
2013-03-20 09:43:00,18.0,12.0,-100.00,North,-999,3.0,4.0,76,0.00,,,0.00,51.000000,,2013-03-20 15:43:00,
2013-03-20 09:52:00,18.0,12.0,-100.00,North,-999,3.0,4.0,76,0.00,,,0.00,51.000000,,2013-03-20 15:52:00,
2013-03-20 10:23:00,21.0,16.0,-100.00,North,-999,2.0,7.0,79,0.00,,,0.00,115.000000,,2013-03-20 16:23:00,
2013-03-20 10:32:00,21.0,16.0,-100.00,North,-999,2.0,7.0,79,0.00,,,0.00,115.000000,,2013-03-20 16:32:00,
2013-03-20 10:42:00,21.0,16.0,-100.00,North,-999,2.0,7.0,79,0.00,,,0.00,115.000000,,2013-03-20 16:42:00,
2013-03-20 10:52:00,21.0,16.0,-100.00,North,-999,2.0,7.0,79,0.00,,,0.00,115.000000,,2013-03-20 16:52:00,
2013-03-20 11:22:00,26.0,19.0,-100.00,North,-999,0.0,3.0,75,0.00,,,0.00,120.000000,,2013-03-20 17:22:00,
2013-03-20 11:32:00,26.0,19.0,-100.00,North,-999,0.0,3.0,75,0.00,,,0.00,120.000000,,2013-03-20 17:32:00,
2013-03-20 11:42:00,26.0,19.0,-100.00,North,-999,0.0,3.0,75,0.00,,,0.00,120.000000,,2013-03-20 17:42:00,
2013-03-20 11:52:00,26.0,19.0,-100.00,North,-999,0.0,3.0,75,0.00,,,0.00,120.000000,,2013-03-20 17:52:00,
2013-03-20 12:22:00,24.0,21.0,-100.00,North,-999,9.0,13.0,88,0.00,,,0.00,197.000000,,2013-03-20 18:22:00,
2013-03-20 12:33:00,24.0,21.0,-100.00,North,-999,9.0,13.0,88,0.00,,,0.00,197.000000,,2013-03-20 18:33:00,
2013-03-20 12:42:00,24.0,21.0,-100.00,North,-999,9.0,13.0,88,0.00,,,0.00,197.000000,,2013-03-20 18:42:00,
2013-03-20 12:52:00,24.0,21.0,-100.00,North,-999,9.0,13.0,88,0.00,,,0.00,197.000000,,2013-03-20 18:52:00,
2013-03-20 13:22:00,28.0,25.0,-100.00,North,-999,15.0,18.0,88,0.00,,,0.00,386.000000,,2013-03-20 19:22:00,
2013-03-20 13:32:00,28.0,25.0,-100.00,North,-999,15.0,18.0,88,0.00,,,0.00,386.000000,,2013-03-20 19:32:00,
2013-03-20 13:42:00,28.0,25.0,-100.00,North,-999,15.0,18.0,88,0.00,,,0.00,386.000000,,2013-03-20 19:42:00,
2013-03-20 13:52:00,28.0,25.0,-100.00,North,-999,15.0,18.0,88,0.00,,,0.00,386.000000,,2013-03-20 19:52:00,
2013-03-20 14:22:00,28.0,25.0,-100.00,North,-999,13.0,17.0,90,0.02,,,0.02,361.000000,,2013-03-20 20:22:00,
2013-03-20 14:32:00,28.0,25.0,-100.00,North,-999,13.0,17.0,90,0.02,,,0.02,361.000000,,2013-03-20 20:32:00,
2013-03-20 14:42:00,28.0,25.0,-100.00,North,-999,13.0,17.0,90,0.02,,,0.02,361.000000,,2013-03-20 20:42:00,
2013-03-20 14:52:00,28.0,25.0,-100.00,North,-999,13.0,17.0,90,0.02,,,0.02,361.000000,,2013-03-20 20:52:00,
2013-03-20 16:23:00,31.0,29.0,-100.00,North,-999,11.0,18.0,94,-99.99,,,0.09,254.000000,,2013-03-20 22:23:00,
2013-03-20 16:32:00,31.0,29.0,-100.00,North,-999,11.0,18.0,94,-99.99,,,0.09,254.000000,,2013-03-20 22:32:00,
2013-03-20 16:42:00,31.0,29.0,-100.00,North,-999,11.0,18.0,94,-99.99,,,0.09,254.000000,,2013-03-20 22:42:00,
2013-03-20 16:52:00,31.0,29.0,-100.00,North,-999,11.0,18.0,94,-99.99,,,0.09,254.000000,,2013-03-20 22:52:00,
2013-03-20 17:22:00,32.0,31.0,-100.00,ENE,66,11.0,17.0,96,0.03,,,0.12,183.000000,,2013-03-20 23:22:00,
2013-03-20 17:32:00,32.0,31.0,-100.00,ENE,66,11.0,17.0,96,0.03,,,0.12,183.000000,,2013-03-20 23:32:00,
2013-03-20 17:42:00,32.0,31.0,-100.00,ENE,66,11.0,17.0,96,0.03,,,0.12,183.000000,,2013-03-20 23:42:00,
2013-03-20 17:52:00,32.0,31.0,-100.00,ENE,66,11.0,17.0,96,0.03,,,0.12,183.000000,,2013-03-20 23:52:00,
2013-03-20 18:22:00,32.0,31.0,-100.00,North,-999,13.0,19.0,96,0.02,,,0.14,156.000000,,2013-03-21 00:22:00,
2013-03-20 18:32:00,32.0,31.0,-100.00,North,-999,13.0,19.0,96,0.02,,,0.14,156.000000,,2013-03-21 00:32:00,
2013-03-20 18:42:00,32.0,31.0,-100.00,North,-999,13.0,19.0,96,0.02,,,0.14,156.000000,,2013-03-21 00:42:00,
2013-03-20 18:52:00,32.0,31.0,-100.00,North,-999,13.0,19.0,96,0.02,,,0.14,156.000000,,2013-03-21 00:52:00,
2013-03-20 19:22:00,32.0,31.0,-100.00,North,-999,15.0,21.0,96,0.00,,,0.14,96.000000,,2013-03-21 01:22:00,
2013-03-20 19:32:00,32.0,31.0,-100.00,North,-999,15.0,21.0,96,0.00,,,0.14,96.000000,,2013-03-21 01:32:00,
2013-03-20 19:42:00,32.0,31.0,-100.00,North,-999,15.0,21.0,96,0.00,,,0.14,96.000000,,2013-03-21 01:42:00,
2013-03-20 19:52:00,32.0,31.0,-100.00,North,-999,15.0,21.0,96,0.00,,,0.14,96.000000,,2013-03-21 01:52:00,
2013-03-20 20:22:00,32.0,31.0,-100.00,North,-999,18.0,24.0,96,0.00,,,0.14,6.000000,,2013-03-21 02:22:00,
2013-03-20 20:32:00,32.0,31.0,-100.00,North,-999,18.0,24.0,96,0.00,,,0.14,6.000000,,2013-03-21 02:32:00,
2013-03-20 20:42:00,32.0,31.0,-100.00,North,-999,18.0,24.0,96,0.00,,,0.14,6.000000,,2013-03-21 02:42:00,
2013-03-20 20:51:00,32.0,31.0,-100.00,North,-999,18.0,24.0,96,0.00,,,0.14,6.000000,,2013-03-21 02:51:00,
2013-03-20 21:22:00,32.0,31.0,-100.00,North,-999,14.0,24.0,97,0.00,,,0.14,1.000000,,2013-03-21 03:22:00,
2013-03-20 21:32:00,32.0,31.0,-100.00,North,-999,14.0,24.0,97,0.00,,,0.14,1.000000,,2013-03-21 03:32:00,
2013-03-20 21:43:00,32.0,31.0,-100.00,North,-999,14.0,24.0,97,0.00,,,0.14,1.000000,,2013-03-21 03:43:00,
2013-03-20 21:52:00,32.0,31.0,-100.00,North,-999,14.0,24.0,97,0.00,,,0.14,1.000000,,2013-03-21 03:52:00,
2013-03-20 22:22:00,32.0,32.0,-100.00,North,-999,16.0,25.0,99,0.00,,,0.14,0.000000,,2013-03-21 04:22:00,
2013-03-20 22:32:00,32.0,32.0,-100.00,North,-999,16.0,25.0,99,0.00,,,0.14,0.000000,,2013-03-21 04:32:00,
2013-03-20 22:43:00,32.0,32.0,-100.00,North,-999,16.0,25.0,99,0.00,,,0.14,0.000000,,2013-03-21 04:43:00,
2013-03-20 22:52:00,32.0,32.0,-100.00,North,-999,16.0,25.0,99,0.00,,,0.14,0.000000,,2013-03-21 04:52:00,
2013-03-20 23:22:00,33.0,33.0,-100.00,North,-999,18.0,25.0,99,0.00,,,0.14,1.000000,,2013-03-21 05:22:00,
2013-03-20 23:32:00,33.0,33.0,-100.00,North,-999,18.0,25.0,99,0.00,,,0.14,1.000000,,2013-03-21 05:32:00,
2013-03-20 23:43:00,33.0,33.0,-100.00,North,-999,18.0,25.0,99,0.00,,,0.14,1.000000,,2013-03-21 05:43:00,
2013-03-20 23:51:00,33.0,33.0,-100.00,North,-999,18.0,25.0,99,0.00,,,0.14,1.000000,,2013-03-21 05:51:00,